Year,Month,Day,Hour,Minute,Value (Times are PST for temperature in C)
2012,10,01,00,00,7.80
2012,10,01,00,01,7.80
2012,10,01,00,02,7.80
2012,10,01,00,03,7.80
2012,10,01,00,04,7.80
2012,10,01,00,05,7.80
2012,10,01,00,06,7.80
2012,10,01,00,07,7.80
2012,10,01,00,08,7.80
2012,10,01,00,09,7.80
2012,10,01,00,10,7.80
2012,10,01,00,11,7.80
2012,10,01,00,12,7.80
2012,10,01,00,13,7.80
2012,10,01,00,14,7.80
2012,10,01,00,15,7.80
2012,10,01,00,16,7.80
2012,10,01,00,17,7.80
2012,10,01,00,18,7.80
2012,10,01,00,19,7.80
2012,10,01,00,20,7.80
2012,10,01,00,21,7.70
2012,10,01,00,22,7.70
2012,10,01,00,23,7.70
2012,10,01,00,24,7.70
2012,10,01,00,25,7.70
2012,10,01,00,26,7.70
2012,10,01,00,27,7.60
2012,10,01,00,28,7.60
2012,10,01,00,29,7.60
2012,10,01,00,30,7.60
2012,10,01,00,31,7.60
2012,10,01,00,32,7.50
2012,10,01,00,33,7.50
2012,10,01,00,34,7.50
2012,10,01,00,35,7.50
2012,10,01,00,36,7.40
2012,10,01,00,37,7.40
2012,10,01,00,38,7.40
2012,10,01,00,39,7.40
2012,10,01,00,40,7.40
2012,10,01,00,41,7.40
2012,10,01,00,42,7.30
2012,10,01,00,43,7.30
2012,10,01,00,44,7.30
2012,10,01,00,45,7.30
2012,10,01,00,46,7.30
2012,10,01,00,47,7.30
2012,10,01,00,48,7.30
2012,10,01,00,49,7.30
2012,10,01,00,50,7.30
2012,10,01,00,51,7.30
2012,10,01,00,52,7.30
2012,10,01,00,53,7.30
2012,10,01,00,54,7.30
2012,10,01,00,55,7.30
2012,10,01,00,56,7.30
2012,10,01,00,57,7.30
2012,10,01,00,58,7.30
2012,10,01,00,59,7.30
2012,10,01,01,00,7.30
2012,10,01,01,01,7.30
2012,10,01,01,02,7.30
2012,10,01,01,03,7.20
2012,10,01,01,04,7.20
2012,10,01,01,05,7.20
2012,10,01,01,06,7.20
2012,10,01,01,07,7.20
2012,10,01,01,08,7.20
2012,10,01,01,09,7.20
2012,10,01,01,10,7.10
2012,10,01,01,11,7.10
2012,10,01,01,12,7.10
2012,10,01,01,13,7.10
2012,10,01,01,14,7.10
2012,10,01,01,15,7.10
2012,10,01,01,16,7.10
2012,10,01,01,17,7.10
2012,10,01,01,18,7.10
2012,10,01,01,19,7.10
2012,10,01,01,20,7.10
2012,10,01,01,21,7.10
2012,10,01,01,22,7.10
2012,10,01,01,23,7.10
2012,10,01,01,24,7.10
2012,10,01,01,25,7.10
2012,10,01,01,26,7.10
2012,10,01,01,27,7.00
2012,10,01,01,28,7.00
2012,10,01,01,29,7.00
2012,10,01,01,30,7.00
2012,10,01,01,31,7.00
2012,10,01,01,32,7.00
2012,10,01,01,33,7.00
2012,10,01,01,34,7.00
2012,10,01,01,35,7.00
2012,10,01,01,36,7.00
2012,10,01,01,37,7.00
2012,10,01,01,38,7.00
2012,10,01,01,39,7.00
2012,10,01,01,40,7.00
2012,10,01,01,41,7.00
2012,10,01,01,42,7.00
2012,10,01,01,43,7.00
2012,10,01,01,44,7.00
2012,10,01,01,45,7.00
2012,10,01,01,46,7.00
2012,10,01,01,47,7.00
2012,10,01,01,48,7.00
2012,10,01,01,49,7.00
2012,10,01,01,50,7.00
2012,10,01,01,51,7.00
2012,10,01,01,52,7.00
2012,10,01,01,53,6.90
2012,10,01,01,54,6.90
2012,10,01,01,55,6.90
2012,10,01,01,56,6.90
2012,10,01,01,57,6.90
2012,10,01,01,58,6.90
2012,10,01,01,59,7.00
2012,10,01,02,00,7.00
2012,10,01,02,01,7.00
2012,10,01,02,02,7.00
2012,10,01,02,03,7.00
2012,10,01,02,04,7.00
2012,10,01,02,05,7.00
2012,10,01,02,06,6.90
2012,10,01,02,07,6.90
2012,10,01,02,08,6.90
2012,10,01,02,09,6.90
2012,10,01,02,10,6.90
2012,10,01,02,11,6.90
2012,10,01,02,12,6.90
2012,10,01,02,13,6.90
2012,10,01,02,14,6.90
2012,10,01,02,15,7.00
2012,10,01,02,16,7.00
2012,10,01,02,17,7.00
2012,10,01,02,18,7.00
2012,10,01,02,19,7.00
2012,10,01,02,20,7.00
2012,10,01,02,21,7.00
2012,10,01,02,22,7.00
2012,10,01,02,23,7.00
2012,10,01,02,24,7.00
2012,10,01,02,25,7.00
2012,10,01,02,26,7.00
2012,10,01,02,27,7.00
2012,10,01,02,28,7.00
2012,10,01,02,29,7.00
2012,10,01,02,30,7.00
2012,10,01,02,31,7.10
2012,10,01,02,32,7.10
2012,10,01,02,33,7.10
2012,10,01,02,34,7.10
2012,10,01,02,35,7.10
2012,10,01,02,36,7.10
2012,10,01,02,37,7.10
2012,10,01,02,38,7.10
2012,10,01,02,39,7.10
2012,10,01,02,40,7.10
2012,10,01,02,41,7.10
2012,10,01,02,42,7.10
2012,10,01,02,43,7.10
2012,10,01,02,44,7.10
2012,10,01,02,45,7.10
2012,10,01,02,46,7.10
2012,10,01,02,47,7.10
2012,10,01,02,48,7.10
2012,10,01,02,49,7.10
2012,10,01,02,50,7.10
2012,10,01,02,51,7.10
2012,10,01,02,52,7.10
2012,10,01,02,53,7.10
2012,10,01,02,54,7.10
2012,10,01,02,55,7.10
2012,10,01,02,56,7.10
2012,10,01,02,57,7.10
2012,10,01,02,58,7.10
2012,10,01,02,59,7.10
2012,10,01,03,00,7.10
2012,10,01,03,01,7.10
2012,10,01,03,02,7.10
2012,10,01,03,03,7.10
2012,10,01,03,04,7.10
2012,10,01,03,05,7.10
2012,10,01,03,06,7.10
2012,10,01,03,07,7.10
2012,10,01,03,08,7.20
2012,10,01,03,09,7.20
2012,10,01,03,10,7.20
2012,10,01,03,11,7.20
2012,10,01,03,12,7.20
2012,10,01,03,13,7.20
2012,10,01,03,14,7.20
2012,10,01,03,15,7.10
2012,10,01,03,16,7.10
2012,10,01,03,17,7.10
2012,10,01,03,18,7.10
2012,10,01,03,19,7.10
2012,10,01,03,20,7.10
2012,10,01,03,21,7.10
2012,10,01,03,22,7.10
2012,10,01,03,23,7.10
2012,10,01,03,24,7.10
2012,10,01,03,25,7.00
2012,10,01,03,26,7.00
2012,10,01,03,27,7.00
2012,10,01,03,28,7.00
2012,10,01,03,29,7.00
2012,10,01,03,30,7.00
2012,10,01,03,31,7.00
2012,10,01,03,32,6.90
2012,10,01,03,33,6.90
2012,10,01,03,34,6.90
2012,10,01,03,35,6.90
2012,10,01,03,36,6.90
2012,10,01,03,37,6.90
2012,10,01,03,38,6.80
2012,10,01,03,39,6.80
2012,10,01,03,40,6.80
2012,10,01,03,41,6.80
2012,10,01,03,42,6.80
2012,10,01,03,43,6.80
2012,10,01,03,44,6.80
2012,10,01,03,45,6.80
2012,10,01,03,46,6.80
2012,10,01,03,47,6.80
2012,10,01,03,48,6.80
2012,10,01,03,49,6.80
2012,10,01,03,50,6.80
2012,10,01,03,51,6.80
2012,10,01,03,52,6.80
2012,10,01,03,53,6.80
2012,10,01,03,54,6.80
2012,10,01,03,55,6.80
2012,10,01,03,56,6.80
2012,10,01,03,57,6.80
2012,10,01,03,58,6.80
2012,10,01,03,59,6.80
2012,10,01,04,00,6.80
2012,10,01,04,01,6.80
2012,10,01,04,02,6.80
2012,10,01,04,03,6.80
2012,10,01,04,04,6.80
2012,10,01,04,05,6.80
2012,10,01,04,06,6.80
2012,10,01,04,07,6.80
2012,10,01,04,08,6.80
2012,10,01,04,09,6.80
2012,10,01,04,10,6.80
2012,10,01,04,11,6.80
2012,10,01,04,12,6.80
2012,10,01,04,13,6.80
2012,10,01,04,14,6.80
2012,10,01,04,15,6.80
2012,10,01,04,16,6.80
2012,10,01,04,17,6.80
2012,10,01,04,18,6.80
2012,10,01,04,19,6.80
2012,10,01,04,20,6.80
2012,10,01,04,21,6.80
2012,10,01,04,22,6.80
2012,10,01,04,23,6.80
2012,10,01,04,24,6.80
2012,10,01,04,25,6.70
2012,10,01,04,26,6.70
2012,10,01,04,27,6.70
2012,10,01,04,28,6.70
2012,10,01,04,29,6.70
2012,10,01,04,30,6.70
2012,10,01,04,31,6.70
2012,10,01,04,32,6.70
2012,10,01,04,33,6.60
2012,10,01,04,34,6.60
2012,10,01,04,35,6.60
2012,10,01,04,36,6.60
2012,10,01,04,37,6.60
2012,10,01,04,38,6.60
2012,10,01,04,39,6.60
2012,10,01,04,40,6.60
2012,10,01,04,41,6.60
2012,10,01,04,42,6.60
2012,10,01,04,43,6.60
2012,10,01,04,44,6.60
2012,10,01,04,45,6.60
2012,10,01,04,46,6.60
2012,10,01,04,47,6.60
2012,10,01,04,48,6.40
2012,10,01,04,49,6.40
2012,10,01,04,50,6.40
2012,10,01,04,51,6.40
2012,10,01,04,52,6.40
2012,10,01,04,53,6.40
2012,10,01,04,54,6.40
2012,10,01,04,55,6.40
2012,10,01,04,56,6.40
2012,10,01,04,57,6.40
2012,10,01,04,58,6.40
2012,10,01,04,59,6.40
2012,10,01,05,00,6.40
2012,10,01,05,01,6.40
2012,10,01,05,02,6.40
2012,10,01,05,03,6.40
2012,10,01,05,04,6.40
2012,10,01,05,05,6.40
2012,10,01,05,06,6.40
2012,10,01,05,07,6.40
2012,10,01,05,08,6.40
2012,10,01,05,09,6.40
2012,10,01,05,10,6.40
2012,10,01,05,11,6.40
2012,10,01,05,12,6.40
2012,10,01,05,13,6.40
2012,10,01,05,14,6.40
2012,10,01,05,15,6.40
2012,10,01,05,16,6.40
2012,10,01,05,17,6.40
2012,10,01,05,18,6.40
2012,10,01,05,19,6.40
2012,10,01,05,20,6.40
2012,10,01,05,21,6.40
2012,10,01,05,22,6.40
2012,10,01,05,23,6.50
2012,10,01,05,24,6.60
2012,10,01,05,25,6.60
2012,10,01,05,26,6.60
2012,10,01,05,27,6.60
2012,10,01,05,28,6.60
2012,10,01,05,29,6.60
2012,10,01,05,30,6.60
2012,10,01,05,31,6.60
2012,10,01,05,32,6.50
2012,10,01,05,33,6.40
2012,10,01,05,34,6.40
2012,10,01,05,35,6.40
2012,10,01,05,36,6.40
2012,10,01,05,37,6.40
2012,10,01,05,38,6.40
2012,10,01,05,39,6.40
2012,10,01,05,40,6.40
2012,10,01,05,41,6.40
2012,10,01,05,42,6.40
2012,10,01,05,43,6.40
2012,10,01,05,44,6.40
2012,10,01,05,45,6.40
2012,10,01,05,46,6.40
2012,10,01,05,47,6.40
2012,10,01,05,48,6.50
2012,10,01,05,49,6.60
2012,10,01,05,50,6.60
2012,10,01,05,51,6.60
2012,10,01,05,52,6.60
2012,10,01,05,53,6.60
2012,10,01,05,54,6.60
2012,10,01,05,55,6.60
2012,10,01,05,56,6.60
2012,10,01,05,57,6.60
2012,10,01,05,58,6.60
2012,10,01,05,59,6.60
2012,10,01,06,00,6.60
2012,10,01,06,01,6.60
2012,10,01,06,02,6.60
2012,10,01,06,03,6.60
2012,10,01,06,04,6.60
2012,10,01,06,05,6.60
2012,10,01,06,06,6.60
2012,10,01,06,07,6.50
2012,10,01,06,08,6.40
2012,10,01,06,09,6.40
2012,10,01,06,10,6.40
2012,10,01,06,11,6.40
2012,10,01,06,12,6.40
2012,10,01,06,13,6.40
2012,10,01,06,14,6.40
2012,10,01,06,15,6.40
2012,10,01,06,16,6.40
2012,10,01,06,17,6.50
2012,10,01,06,18,6.60
2012,10,01,06,19,6.60
2012,10,01,06,20,6.60
2012,10,01,06,21,6.60
2012,10,01,06,22,6.50
2012,10,01,06,23,6.40
2012,10,01,06,24,6.40
2012,10,01,06,25,6.40
2012,10,01,06,26,6.40
2012,10,01,06,27,6.40
2012,10,01,06,28,6.40
2012,10,01,06,29,6.40
2012,10,01,06,30,6.40
2012,10,01,06,31,6.30
2012,10,01,06,32,6.30
2012,10,01,06,33,6.30
2012,10,01,06,34,6.30
2012,10,01,06,35,6.30
2012,10,01,06,36,6.30
2012,10,01,06,37,6.30
2012,10,01,06,38,6.30
2012,10,01,06,39,6.30
2012,10,01,06,40,6.30
2012,10,01,06,41,6.30
2012,10,01,06,42,6.40
2012,10,01,06,43,6.40
2012,10,01,06,44,6.40
2012,10,01,06,45,6.40
2012,10,01,06,46,6.40
2012,10,01,06,47,6.40
2012,10,01,06,48,6.40
2012,10,01,06,49,6.40
2012,10,01,06,50,6.30
2012,10,01,06,51,6.30
2012,10,01,06,52,6.30
2012,10,01,06,53,6.40
2012,10,01,06,54,6.40
2012,10,01,06,55,6.40
2012,10,01,06,56,6.40
2012,10,01,06,57,6.40
2012,10,01,06,58,6.40
2012,10,01,06,59,6.40
2012,10,01,07,00,6.40
2012,10,01,07,01,6.40
2012,10,01,07,02,6.40
2012,10,01,07,03,6.40
2012,10,01,07,04,6.40
2012,10,01,07,05,6.40
2012,10,01,07,06,6.40
2012,10,01,07,07,6.40
2012,10,01,07,08,6.40
2012,10,01,07,09,6.30
2012,10,01,07,10,6.30
2012,10,01,07,11,6.30
2012,10,01,07,12,6.30
2012,10,01,07,13,6.40
2012,10,01,07,14,6.40
2012,10,01,07,15,6.40
2012,10,01,07,16,6.40
2012,10,01,07,17,6.40
2012,10,01,07,18,6.40
2012,10,01,07,19,6.40
2012,10,01,07,20,6.40
2012,10,01,07,21,6.40
2012,10,01,07,22,6.40
2012,10,01,07,23,6.40
2012,10,01,07,24,6.40
2012,10,01,07,25,6.40
2012,10,01,07,26,6.40
2012,10,01,07,27,6.40
2012,10,01,07,28,6.40
2012,10,01,07,29,6.40
2012,10,01,07,30,6.40
2012,10,01,07,31,6.40
2012,10,01,07,32,6.40
2012,10,01,07,33,6.40
2012,10,01,07,34,6.40
2012,10,01,07,35,6.40
2012,10,01,07,36,6.40
2012,10,01,07,37,6.40
2012,10,01,07,38,6.40
2012,10,01,07,39,6.40
2012,10,01,07,40,6.40
2012,10,01,07,41,6.40
2012,10,01,07,42,6.40
2012,10,01,07,43,6.40
2012,10,01,07,44,6.50
2012,10,01,07,45,6.60
2012,10,01,07,46,6.60
2012,10,01,07,47,6.60
2012,10,01,07,48,6.60
2012,10,01,07,49,6.60
2012,10,01,07,50,6.60
2012,10,01,07,51,6.60
2012,10,01,07,52,6.60
2012,10,01,07,53,6.60
2012,10,01,07,54,6.60
2012,10,01,07,55,6.60
2012,10,01,07,56,6.60
2012,10,01,07,57,6.60
2012,10,01,07,58,6.60
2012,10,01,07,59,6.60
2012,10,01,08,00,6.60
2012,10,01,08,01,6.70
2012,10,01,08,02,6.70
2012,10,01,08,03,6.70
2012,10,01,08,04,6.70
2012,10,01,08,05,6.70
2012,10,01,08,06,6.70
2012,10,01,08,07,6.70
2012,10,01,08,08,6.70
2012,10,01,08,09,6.70
2012,10,01,08,10,6.70
2012,10,01,08,11,6.80
2012,10,01,08,12,6.80
2012,10,01,08,13,6.80
2012,10,01,08,14,6.80
2012,10,01,08,15,6.80
2012,10,01,08,16,6.80
2012,10,01,08,17,6.80
2012,10,01,08,18,6.90
2012,10,01,08,19,7.00
2012,10,01,08,20,7.00
2012,10,01,08,21,7.10
2012,10,01,08,22,7.20
2012,10,01,08,23,7.30
2012,10,01,08,24,7.30
2012,10,01,08,25,7.40
2012,10,01,08,26,7.50
2012,10,01,08,27,7.60
2012,10,01,08,28,7.60
2012,10,01,08,29,7.70
2012,10,01,08,30,7.70
2012,10,01,08,31,7.80
2012,10,01,08,32,7.90
2012,10,01,08,33,7.90
2012,10,01,08,34,8.00
2012,10,01,08,35,8.20
2012,10,01,08,36,8.20
2012,10,01,08,37,8.40
2012,10,01,08,38,8.40
2012,10,01,08,39,8.60
2012,10,01,08,40,8.70
2012,10,01,08,41,8.80
2012,10,01,08,42,8.90
2012,10,01,08,43,9.00
2012,10,01,08,44,9.10
2012,10,01,08,45,9.20
2012,10,01,08,46,9.30
2012,10,01,08,47,9.40
2012,10,01,08,48,9.50
2012,10,01,08,49,9.60
2012,10,01,08,50,9.70
2012,10,01,08,51,9.80
2012,10,01,08,52,9.90
2012,10,01,08,53,10.10
2012,10,01,08,54,10.10
2012,10,01,08,55,10.20
2012,10,01,08,56,10.30
2012,10,01,08,57,10.40
2012,10,01,08,58,10.60
2012,10,01,08,59,10.70
2012,10,01,09,00,10.80
2012,10,01,09,01,10.90
2012,10,01,09,02,11.00
2012,10,01,09,03,11.10
2012,10,01,09,04,11.30
2012,10,01,09,05,11.40
2012,10,01,09,06,11.40
2012,10,01,09,07,11.50
2012,10,01,09,08,11.60
2012,10,01,09,09,11.60
2012,10,01,09,10,11.60
2012,10,01,09,11,11.60
2012,10,01,09,12,11.60
2012,10,01,09,13,11.70
2012,10,01,09,14,11.80
2012,10,01,09,15,11.80
2012,10,01,09,16,11.90
2012,10,01,09,17,12.00
2012,10,01,09,18,12.10
2012,10,01,09,19,12.20
2012,10,01,09,20,12.30
2012,10,01,09,21,12.50
2012,10,01,09,22,12.60
2012,10,01,09,23,12.70
2012,10,01,09,24,12.80
2012,10,01,09,25,12.80
2012,10,01,09,26,12.90
2012,10,01,09,27,12.90
2012,10,01,09,28,13.00
2012,10,01,09,29,13.00
2012,10,01,09,30,12.90
2012,10,01,09,31,13.00
2012,10,01,09,32,13.00
2012,10,01,09,33,13.00
2012,10,01,09,34,13.00
2012,10,01,09,35,13.10
2012,10,01,09,36,13.10
2012,10,01,09,37,13.00
2012,10,01,09,38,13.00
2012,10,01,09,39,13.00
2012,10,01,09,40,13.00
2012,10,01,09,41,13.00
2012,10,01,09,42,13.10
2012,10,01,09,43,13.10
2012,10,01,09,44,13.10
2012,10,01,09,45,13.10
2012,10,01,09,46,13.10
2012,10,01,09,47,13.20
2012,10,01,09,48,13.20
2012,10,01,09,49,13.20
2012,10,01,09,50,13.30
2012,10,01,09,51,13.30
2012,10,01,09,52,13.30
2012,10,01,09,53,13.30
2012,10,01,09,54,13.40
2012,10,01,09,55,13.40
2012,10,01,09,56,13.50
2012,10,01,09,57,13.50
2012,10,01,09,58,13.50
2012,10,01,09,59,13.60
2012,10,01,10,00,13.60
2012,10,01,10,01,13.60
2012,10,01,10,02,13.60
2012,10,01,10,03,13.70
2012,10,01,10,04,13.70
2012,10,01,10,05,13.70
2012,10,01,10,06,13.70
2012,10,01,10,07,13.80
2012,10,01,10,08,13.80
2012,10,01,10,09,13.90
2012,10,01,10,10,13.90
2012,10,01,10,11,14.00
2012,10,01,10,12,14.10
2012,10,01,10,13,14.20
2012,10,01,10,14,14.30
2012,10,01,10,15,14.40
2012,10,01,10,16,14.60
2012,10,01,10,17,14.60
2012,10,01,10,18,14.80
2012,10,01,10,19,14.80
2012,10,01,10,20,14.90
2012,10,01,10,21,14.90
2012,10,01,10,22,15.00
2012,10,01,10,23,15.00
2012,10,01,10,24,15.00
2012,10,01,10,25,15.00
2012,10,01,10,26,15.00
2012,10,01,10,27,15.10
2012,10,01,10,28,15.10
2012,10,01,10,29,15.10
2012,10,01,10,30,15.10
2012,10,01,10,31,15.10
2012,10,01,10,32,15.10
2012,10,01,10,33,15.20
2012,10,01,10,34,15.30
2012,10,01,10,35,15.30
2012,10,01,10,36,15.40
2012,10,01,10,37,15.50
2012,10,01,10,38,15.60
2012,10,01,10,39,15.60
2012,10,01,10,40,15.70
2012,10,01,10,41,15.80
2012,10,01,10,42,15.90
2012,10,01,10,43,16.00
2012,10,01,10,44,16.20
2012,10,01,10,45,16.30
2012,10,01,10,46,16.40
2012,10,01,10,47,16.40
2012,10,01,10,48,16.40
2012,10,01,10,49,16.40
2012,10,01,10,50,16.40
2012,10,01,10,51,16.60
2012,10,01,10,52,16.60
2012,10,01,10,53,16.70
2012,10,01,10,54,16.70
2012,10,01,10,55,16.80
2012,10,01,10,56,16.90
2012,10,01,10,57,17.00
2012,10,01,10,58,17.10
2012,10,01,10,59,17.20
2012,10,01,11,00,17.30
2012,10,01,11,01,17.30
2012,10,01,11,02,17.30
2012,10,01,11,03,17.40
2012,10,01,11,04,17.40
2012,10,01,11,05,17.50
2012,10,01,11,06,17.50
2012,10,01,11,07,17.60
2012,10,01,11,08,17.70
2012,10,01,11,09,17.80
2012,10,01,11,10,17.90
2012,10,01,11,11,18.00
2012,10,01,11,12,18.10
2012,10,01,11,13,18.20
2012,10,01,11,14,18.40
2012,10,01,11,15,18.40
2012,10,01,11,16,18.50
2012,10,01,11,17,18.50
2012,10,01,11,18,18.60
2012,10,01,11,19,18.80
2012,10,01,11,20,18.90
2012,10,01,11,21,19.00
2012,10,01,11,22,19.10
2012,10,01,11,23,19.10
2012,10,01,11,24,19.10
2012,10,01,11,25,19.10
2012,10,01,11,26,19.10
2012,10,01,11,27,19.20
2012,10,01,11,28,19.30
2012,10,01,11,29,19.20
2012,10,01,11,30,19.20
2012,10,01,11,31,19.30
2012,10,01,11,32,19.30
2012,10,01,11,33,19.30
2012,10,01,11,34,19.30
2012,10,01,11,35,19.30
2012,10,01,11,36,19.30
2012,10,01,11,37,19.30
2012,10,01,11,38,19.40
2012,10,01,11,39,19.40
2012,10,01,11,40,19.50
2012,10,01,11,41,19.50
2012,10,01,11,42,19.50
2012,10,01,11,43,19.50
2012,10,01,11,44,19.60
2012,10,01,11,45,19.60
2012,10,01,11,46,19.70
2012,10,01,11,47,19.70
2012,10,01,11,48,19.90
2012,10,01,11,49,20.00
2012,10,01,11,50,20.20
2012,10,01,11,51,20.20
2012,10,01,11,52,20.30
2012,10,01,11,53,20.30
2012,10,01,11,54,20.30
2012,10,01,11,55,20.40
2012,10,01,11,56,20.40
2012,10,01,11,57,20.40
2012,10,01,11,58,20.50
2012,10,01,11,59,20.50
2012,10,01,12,00,20.50
2012,10,01,12,01,20.60
2012,10,01,12,02,20.60
2012,10,01,12,03,20.60
2012,10,01,12,04,20.70
2012,10,01,12,05,20.80
2012,10,01,12,06,20.90
2012,10,01,12,07,21.00
2012,10,01,12,08,21.10
2012,10,01,12,09,21.20
2012,10,01,12,10,21.30
2012,10,01,12,11,21.30
2012,10,01,12,12,21.40
2012,10,01,12,13,21.40
2012,10,01,12,14,21.40
2012,10,01,12,15,21.40
2012,10,01,12,16,21.40
2012,10,01,12,17,21.30
2012,10,01,12,18,21.30
2012,10,01,12,19,21.30
2012,10,01,12,20,21.30
2012,10,01,12,21,21.40
2012,10,01,12,22,21.50
2012,10,01,12,23,21.60
2012,10,01,12,24,21.60
2012,10,01,12,25,21.60
2012,10,01,12,26,21.80
2012,10,01,12,27,21.80
2012,10,01,12,28,21.80
2012,10,01,12,29,21.90
2012,10,01,12,30,22.00
2012,10,01,12,31,22.00
2012,10,01,12,32,22.10
2012,10,01,12,33,22.20
2012,10,01,12,34,22.30
2012,10,01,12,35,22.40
2012,10,01,12,36,22.50
2012,10,01,12,37,22.60
2012,10,01,12,38,22.70
2012,10,01,12,39,22.80
2012,10,01,12,40,22.70
2012,10,01,12,41,22.60
2012,10,01,12,42,22.50
2012,10,01,12,43,22.40
2012,10,01,12,44,22.30
2012,10,01,12,45,22.20
2012,10,01,12,46,22.20
2012,10,01,12,47,22.20
2012,10,01,12,48,22.30
2012,10,01,12,49,22.50
2012,10,01,12,50,22.60
2012,10,01,12,51,22.70
2012,10,01,12,52,22.70
2012,10,01,12,53,22.80
2012,10,01,12,54,22.90
2012,10,01,12,55,22.90
2012,10,01,12,56,23.00
2012,10,01,12,57,23.10
2012,10,01,12,58,23.10
2012,10,01,12,59,23.20
2012,10,01,13,00,23.30
2012,10,01,13,01,23.30
2012,10,01,13,02,23.30
2012,10,01,13,03,23.40
2012,10,01,13,04,23.40
2012,10,01,13,05,23.40
2012,10,01,13,06,23.40
2012,10,01,13,07,23.30
2012,10,01,13,08,23.30
2012,10,01,13,09,23.10
2012,10,01,13,10,23.00
2012,10,01,13,11,22.90
2012,10,01,13,12,22.90
2012,10,01,13,13,22.90
2012,10,01,13,14,22.90
2012,10,01,13,15,22.80
2012,10,01,13,16,22.70
2012,10,01,13,17,22.70
2012,10,01,13,18,22.60
2012,10,01,13,19,22.60
2012,10,01,13,20,22.60
2012,10,01,13,21,22.60
2012,10,01,13,22,22.60
2012,10,01,13,23,22.60
2012,10,01,13,24,22.50
2012,10,01,13,25,22.60
2012,10,01,13,26,22.60
2012,10,01,13,27,22.60
2012,10,01,13,28,22.60
2012,10,01,13,29,22.70
2012,10,01,13,30,22.70
2012,10,01,13,31,22.80
2012,10,01,13,32,22.80
2012,10,01,13,33,22.90
2012,10,01,13,34,22.90
2012,10,01,13,35,22.90
2012,10,01,13,36,23.10
2012,10,01,13,37,23.10
2012,10,01,13,38,23.10
2012,10,01,13,39,23.10
2012,10,01,13,40,23.20
2012,10,01,13,41,23.10
2012,10,01,13,42,23.10
2012,10,01,13,43,23.10
2012,10,01,13,44,23.10
2012,10,01,13,45,23.10
2012,10,01,13,46,23.10
2012,10,01,13,47,23.10
2012,10,01,13,48,23.10
2012,10,01,13,49,23.10
2012,10,01,13,50,23.10
2012,10,01,13,51,23.10
2012,10,01,13,52,23.10
2012,10,01,13,53,23.10
2012,10,01,13,54,23.10
2012,10,01,13,55,23.10
2012,10,01,13,56,23.10
2012,10,01,13,57,23.20
2012,10,01,13,58,23.20
2012,10,01,13,59,23.20
2012,10,01,14,00,23.20
2012,10,01,14,01,23.30
2012,10,01,14,02,23.30
2012,10,01,14,03,23.30
2012,10,01,14,04,23.40
2012,10,01,14,05,23.40
2012,10,01,14,06,23.40
2012,10,01,14,07,23.40
2012,10,01,14,08,23.40
2012,10,01,14,09,23.30
2012,10,01,14,10,23.30
2012,10,01,14,11,23.30
2012,10,01,14,12,23.30
2012,10,01,14,13,23.30
2012,10,01,14,14,23.30
2012,10,01,14,15,23.30
2012,10,01,14,16,23.40
2012,10,01,14,17,23.40
2012,10,01,14,18,23.60
2012,10,01,14,19,23.60
2012,10,01,14,20,23.70
2012,10,01,14,21,23.80
2012,10,01,14,22,23.90
2012,10,01,14,23,24.00
2012,10,01,14,24,24.10
2012,10,01,14,25,24.20
2012,10,01,14,26,24.30
2012,10,01,14,27,24.30
2012,10,01,14,28,24.30
2012,10,01,14,29,24.40
2012,10,01,14,30,24.40
2012,10,01,14,31,24.40
2012,10,01,14,32,24.30
2012,10,01,14,33,24.30
2012,10,01,14,34,24.10
2012,10,01,14,35,24.00
2012,10,01,14,36,23.80
2012,10,01,14,37,23.70
2012,10,01,14,38,23.70
2012,10,01,14,39,23.60
2012,10,01,14,40,23.60
2012,10,01,14,41,23.60
2012,10,01,14,42,23.60
2012,10,01,14,43,23.60
2012,10,01,14,44,23.60
2012,10,01,14,45,23.60
2012,10,01,14,46,23.70
2012,10,01,14,47,23.70
2012,10,01,14,48,23.70
2012,10,01,14,49,23.60
2012,10,01,14,50,23.60
2012,10,01,14,51,23.60
2012,10,01,14,52,23.60
2012,10,01,14,53,23.60
2012,10,01,14,54,23.50
2012,10,01,14,55,23.40
2012,10,01,14,56,23.40
2012,10,01,14,57,23.40
2012,10,01,14,58,23.30
2012,10,01,14,59,23.30
2012,10,01,15,00,23.30
2012,10,01,15,01,23.30
2012,10,01,15,02,23.30
2012,10,01,15,03,23.40
2012,10,01,15,04,23.50
2012,10,01,15,05,23.60
2012,10,01,15,06,23.70
2012,10,01,15,07,23.70
2012,10,01,15,08,23.80
2012,10,01,15,09,23.90
2012,10,01,15,10,23.90
2012,10,01,15,11,24.00
2012,10,01,15,12,24.10
2012,10,01,15,13,24.10
2012,10,01,15,14,24.10
2012,10,01,15,15,24.20
2012,10,01,15,16,24.30
2012,10,01,15,17,24.30
2012,10,01,15,18,24.30
2012,10,01,15,19,24.40
2012,10,01,15,20,24.40
2012,10,01,15,21,24.50
2012,10,01,15,22,24.50
2012,10,01,15,23,24.60
2012,10,01,15,24,24.60
2012,10,01,15,25,24.60
2012,10,01,15,26,24.60
2012,10,01,15,27,24.60
2012,10,01,15,28,24.50
2012,10,01,15,29,24.50
2012,10,01,15,30,24.50
2012,10,01,15,31,24.50
2012,10,01,15,32,24.40
2012,10,01,15,33,24.40
2012,10,01,15,34,24.30
2012,10,01,15,35,24.20
2012,10,01,15,36,24.10
2012,10,01,15,37,24.10
2012,10,01,15,38,24.10
2012,10,01,15,39,24.10
2012,10,01,15,40,24.10
2012,10,01,15,41,24.10
2012,10,01,15,42,24.10
2012,10,01,15,43,24.10
2012,10,01,15,44,24.10
2012,10,01,15,45,24.20
2012,10,01,15,46,24.30
2012,10,01,15,47,24.40
2012,10,01,15,48,24.40
2012,10,01,15,49,24.40
2012,10,01,15,50,24.40
2012,10,01,15,51,24.50
2012,10,01,15,52,24.50
2012,10,01,15,53,24.50
2012,10,01,15,54,24.60
2012,10,01,15,55,24.60
2012,10,01,15,56,24.70
2012,10,01,15,57,24.70
2012,10,01,15,58,24.80
2012,10,01,15,59,24.80
2012,10,01,16,00,24.90
2012,10,01,16,01,25.00
2012,10,01,16,02,25.00
2012,10,01,16,03,25.10
2012,10,01,16,04,25.10
2012,10,01,16,05,25.20
2012,10,01,16,06,25.20
2012,10,01,16,07,25.20
2012,10,01,16,08,25.20
2012,10,01,16,09,25.20
2012,10,01,16,10,25.20
2012,10,01,16,11,25.20
2012,10,01,16,12,25.10
2012,10,01,16,13,25.10
2012,10,01,16,14,25.10
2012,10,01,16,15,25.20
2012,10,01,16,16,25.20
2012,10,01,16,17,25.20
2012,10,01,16,18,25.20
2012,10,01,16,19,25.10
2012,10,01,16,20,25.10
2012,10,01,16,21,25.20
2012,10,01,16,22,25.10
2012,10,01,16,23,25.00
2012,10,01,16,24,24.80
2012,10,01,16,25,24.70
2012,10,01,16,26,24.60
2012,10,01,16,27,24.50
2012,10,01,16,28,24.40
2012,10,01,16,29,24.40
2012,10,01,16,30,24.40
2012,10,01,16,31,24.40
2012,10,01,16,32,24.40
2012,10,01,16,33,24.40
2012,10,01,16,34,24.30
2012,10,01,16,35,24.30
2012,10,01,16,36,24.30
2012,10,01,16,37,24.30
2012,10,01,16,38,24.30
2012,10,01,16,39,24.40
2012,10,01,16,40,24.30
2012,10,01,16,41,24.30
2012,10,01,16,42,24.30
2012,10,01,16,43,24.20
2012,10,01,16,44,24.10
2012,10,01,16,45,24.10
2012,10,01,16,46,24.10
2012,10,01,16,47,24.10
2012,10,01,16,48,24.10
2012,10,01,16,49,24.10
2012,10,01,16,50,24.10
2012,10,01,16,51,24.10
2012,10,01,16,52,24.10
2012,10,01,16,53,24.10
2012,10,01,16,54,24.10
2012,10,01,16,55,24.10
2012,10,01,16,56,24.00
2012,10,01,16,57,23.90
2012,10,01,16,58,23.80
2012,10,01,16,59,23.80
2012,10,01,17,00,23.80
2012,10,01,17,01,23.70
2012,10,01,17,02,23.60
2012,10,01,17,03,23.40
2012,10,01,17,04,23.30
2012,10,01,17,05,23.30
2012,10,01,17,06,23.30
2012,10,01,17,07,23.10
2012,10,01,17,08,23.10
2012,10,01,17,09,23.10
2012,10,01,17,10,23.00
2012,10,01,17,11,22.90
2012,10,01,17,12,22.90
2012,10,01,17,13,22.90
2012,10,01,17,14,22.80
2012,10,01,17,15,22.80
2012,10,01,17,16,22.80
2012,10,01,17,17,22.80
2012,10,01,17,18,22.70
2012,10,01,17,19,22.60
2012,10,01,17,20,22.60
2012,10,01,17,21,22.50
2012,10,01,17,22,22.50
2012,10,01,17,23,22.30
2012,10,01,17,24,22.30
2012,10,01,17,25,22.20
2012,10,01,17,26,22.10
2012,10,01,17,27,22.00
2012,10,01,17,28,22.00
2012,10,01,17,29,22.00
2012,10,01,17,30,22.00
2012,10,01,17,31,22.00
2012,10,01,17,32,22.00
2012,10,01,17,33,22.00
2012,10,01,17,34,21.90
2012,10,01,17,35,21.90
2012,10,01,17,36,21.80
2012,10,01,17,37,21.70
2012,10,01,17,38,21.70
2012,10,01,17,39,21.70
2012,10,01,17,40,21.70
2012,10,01,17,41,21.70
2012,10,01,17,42,21.70